EDV4438 KMEM-KDCA

Flight info

Callsign EDV4438
Flight time 1h 40m
Altitude 32000
Route GOETZ7 DIYAB WAKOL Q34 SITTR TRUPS5
Aircraft CRJ9/M-SDFGIRWY/S

Departure

Time 2026-04-21 00:56
Airport Memphis International Airport (KMEM)

Arrival

Time 2026-04-21 02:36
Airport Ronald Reagan Washington National Airport (KDCA)
Time Latitude Longitude Altitude Speed Heading
2026-04-21 00:31 35.04181 -89.97987 325 ft 0 kts 222°
2026-04-21 00:46 35.04191 -89.97977 326 ft 4 kts 200°
2026-04-21 00:46 35.04208 -89.97981 327 ft 4 kts 130°
2026-04-21 00:46 35.04222 -89.98000 325 ft 1 kts 134°
2026-04-21 00:46 35.04224 -89.98003 325 ft 0 kts 134°
2026-04-21 00:50 35.04221 -89.98000 325 ft 2 kts 134°
2026-04-21 00:50 35.04199 -89.97969 328 ft 5 kts 120°
2026-04-21 00:51 35.04192 -89.97914 327 ft 7 kts 90°
2026-04-21 00:51 35.04192 -89.97838 325 ft 12 kts 89°
2026-04-21 00:51 35.04227 -89.97747 325 ft 13 kts 13°
2026-04-21 00:51 35.04319 -89.97744 327 ft 13 kts 359°
2026-04-21 00:52 35.04411 -89.97746 325 ft 13 kts 359°
2026-04-21 00:52 35.04504 -89.97748 326 ft 13 kts 359°
2026-04-21 00:52 35.04598 -89.97751 324 ft 14 kts 359°
2026-04-21 00:52 35.04696 -89.97752 326 ft 14 kts 360°
2026-04-21 00:53 35.04795 -89.97754 326 ft 14 kts 359°
2026-04-21 00:53 35.04893 -89.97757 326 ft 14 kts 359°
2026-04-21 00:53 35.04992 -89.97759 326 ft 14 kts 359°
2026-04-21 00:53 35.05090 -89.97761 326 ft 14 kts 359°
2026-04-21 00:54 35.05186 -89.97763 326 ft 14 kts 358°
2026-04-21 00:54 35.05280 -89.97765 324 ft 13 kts 359°
2026-04-21 00:54 35.05368 -89.97778 325 ft 12 kts 352°
2026-04-21 00:54 35.05442 -89.97743 325 ft 12 kts 64°
2026-04-21 00:55 35.05431 -89.97634 323 ft 14 kts 124°
2026-04-21 00:55 35.05397 -89.97612 323 ft 4 kts 174°
2026-04-21 00:55 35.05258 -89.97614 322 ft 45 kts 179°
2026-04-21 00:55 35.04747 -89.97604 320 ft 100 kts 179°
2026-04-21 00:56 35.03896 -89.97587 322 ft 143 kts 179°
2026-04-21 00:56 35.02813 -89.97579 440 ft 166 kts 178°
2026-04-21 00:56 35.01655 -89.97506 944 ft 165 kts 179°
2026-04-21 00:56 35.00520 -89.97514 1518 ft 162 kts 185°
2026-04-21 00:57 34.99370 -89.97533 1911 ft 174 kts 166°
2026-04-21 00:57 34.98226 -89.96798 2066 ft 202 kts 152°
2026-04-21 00:57 34.96895 -89.95982 2330 ft 226 kts 160°
2026-04-21 00:57 34.95357 -89.95315 2916 ft 243 kts 163°
2026-04-21 00:58 34.93851 -89.94282 3535 ft 261 kts 133°
2026-04-21 00:58 34.92977 -89.92311 4228 ft 275 kts 108°
2026-04-21 00:58 34.92649 -89.89941 4801 ft 293 kts 95°
2026-04-21 00:58 34.92542 -89.87442 5390 ft 307 kts 92°
2026-04-21 00:59 34.92528 -89.84774 6011 ft 321 kts 84°
2026-04-21 00:59 34.93234 -89.82180 6787 ft 327 kts 62°
2026-04-21 00:59 34.94391 -89.79784 7615 ft 330 kts 57°
2026-04-21 00:59 34.95635 -89.77413 8471 ft 333 kts 56°
2026-04-21 01:00 34.96883 -89.75012 9306 ft 337 kts 57°
2026-04-21 01:00 34.98108 -89.72557 10155 ft 340 kts 57°
2026-04-21 01:00 34.99287 -89.70081 10869 ft 345 kts 58°
2026-04-21 01:00 35.00483 -89.67522 11581 ft 349 kts 57°
2026-04-21 01:01 35.01697 -89.64935 12292 ft 354 kts 57°
2026-04-21 01:01 35.02926 -89.62318 13005 ft 358 kts 57°
2026-04-21 01:01 35.04170 -89.59670 13725 ft 362 kts 56°
2026-04-21 01:01 35.05431 -89.56985 14399 ft 366 kts 56°
2026-04-21 01:02 35.06702 -89.54280 15074 ft 369 kts 56°
2026-04-21 01:02 35.07977 -89.51557 15739 ft 371 kts 56°
2026-04-21 01:02 35.09262 -89.48808 16381 ft 374 kts 56°
2026-04-21 01:02 35.10553 -89.46042 17007 ft 376 kts 56°
2026-04-21 01:03 35.11854 -89.43256 17630 ft 379 kts 56°
2026-04-21 01:03 35.13146 -89.40486 18218 ft 382 kts 56°
2026-04-21 01:03 35.14464 -89.37661 18784 ft 384 kts 56°
2026-04-21 01:03 35.15795 -89.34813 19262 ft 388 kts 56°
2026-04-21 01:04 35.17138 -89.31938 19747 ft 391 kts 56°
2026-04-21 01:04 35.18488 -89.29038 20223 ft 394 kts 56°
2026-04-21 01:04 35.19846 -89.26116 20688 ft 397 kts 56°
2026-04-21 01:04 35.21215 -89.23171 21157 ft 400 kts 57°
2026-04-21 01:05 35.22356 -89.20038 21607 ft 407 kts 66°
2026-04-21 01:05 35.23192 -89.16752 22040 ft 412 kts 70°
2026-04-21 01:05 35.23999 -89.13383 22466 ft 415 kts 70°
2026-04-21 01:05 35.24857 -89.10010 22882 ft 415 kts 64°
2026-04-21 01:06 35.26056 -89.06805 23301 ft 414 kts 58°
2026-04-21 01:06 35.27420 -89.03690 23705 ft 416 kts 57°
2026-04-21 01:06 35.28806 -89.00568 24053 ft 419 kts 57°
2026-04-21 01:06 35.30155 -88.97389 24375 ft 422 kts 59°
2026-04-21 01:07 35.31466 -88.94157 24681 ft 425 kts 59°
2026-04-21 01:07 35.32774 -88.90954 24988 ft 427 kts 59°
2026-04-21 01:07 35.34111 -88.87689 25294 ft 430 kts 59°
2026-04-21 01:07 35.35451 -88.84402 25598 ft 433 kts 59°
2026-04-21 01:08 35.36791 -88.81094 25885 ft 435 kts 58°
2026-04-21 01:08 35.38148 -88.77775 26180 ft 437 kts 58°
2026-04-21 01:08 35.39506 -88.74435 26454 ft 439 kts 58°
2026-04-21 01:08 35.40869 -88.71078 26725 ft 441 kts 58°
2026-04-21 01:09 35.42238 -88.67700 26991 ft 443 kts 58°
2026-04-21 01:09 35.43596 -88.64351 27243 ft 446 kts 58°
2026-04-21 01:09 35.44975 -88.60936 27499 ft 448 kts 58°
2026-04-21 01:09 35.46363 -88.57508 27749 ft 450 kts 58°
2026-04-21 01:10 35.47753 -88.54058 27985 ft 452 kts 58°
2026-04-21 01:10 35.49149 -88.50602 28220 ft 454 kts 58°
2026-04-21 01:10 35.50549 -88.47126 28501 ft 455 kts 58°
2026-04-21 01:10 35.51948 -88.43632 28734 ft 457 kts 58°
2026-04-21 01:11 35.53361 -88.40127 28955 ft 459 kts 58°
2026-04-21 01:11 35.54776 -88.36606 29168 ft 461 kts 58°
2026-04-21 01:11 35.56198 -88.33067 29380 ft 463 kts 58°
2026-04-21 01:11 35.57602 -88.29560 29574 ft 464 kts 58°
2026-04-21 01:12 35.59030 -88.25992 29785 ft 466 kts 58°
2026-04-21 01:12 35.60461 -88.22413 29977 ft 468 kts 58°
2026-04-21 01:12 35.61896 -88.18821 30165 ft 470 kts 58°
2026-04-21 01:12 35.63336 -88.15207 30345 ft 471 kts 58°
2026-04-21 01:13 35.64780 -88.11590 30512 ft 472 kts 58°
2026-04-21 01:13 35.66223 -88.07955 30678 ft 474 kts 58°
2026-04-21 01:13 35.67672 -88.04315 30837 ft 475 kts 58°
2026-04-21 01:13 35.69124 -88.00652 30995 ft 476 kts 58°
2026-04-21 01:14 35.70556 -87.97045 31146 ft 477 kts 58°
2026-04-21 01:14 35.72013 -87.93366 31225 ft 480 kts 58°
2026-04-21 01:14 35.74959 -87.85917 31301 ft 488 kts 58°
2026-04-21 01:15 35.77955 -87.78330 31298 ft 497 kts 58°
2026-04-21 01:15 35.80715 -87.70422 31334 ft 508 kts 63°
2026-04-21 01:16 35.83229 -87.62328 31314 ft 509 kts 62°
2026-04-21 01:16 35.85890 -87.54253 31307 ft 509 kts 62°
2026-04-21 01:17 35.88541 -87.46166 31303 ft 509 kts 62°
2026-04-21 01:17 35.91185 -87.38074 31304 ft 509 kts 62°
2026-04-21 01:18 35.93830 -87.29977 31332 ft 509 kts 62°
2026-04-21 01:18 35.96443 -87.21950 31313 ft 506 kts 62°
2026-04-21 01:19 35.99056 -87.13893 31296 ft 505 kts 62°
2026-04-21 01:19 36.01655 -87.05857 31290 ft 503 kts 62°
2026-04-21 01:20 36.04248 -86.97829 31280 ft 503 kts 62°
2026-04-21 01:20 36.06823 -86.89836 31282 ft 504 kts 62°
2026-04-21 01:21 36.09410 -86.81771 31279 ft 505 kts 62°
2026-04-21 01:21 36.12000 -86.73689 31305 ft 505 kts 62°
2026-04-21 01:22 36.14596 -86.65609 31301 ft 505 kts 62°
2026-04-21 01:22 36.17220 -86.57539 31305 ft 506 kts 62°
2026-04-21 01:23 36.19823 -86.49509 31336 ft 506 kts 61°
2026-04-21 01:23 36.22420 -86.41468 31337 ft 498 kts 61°
2026-04-21 01:24 36.24967 -86.33565 31327 ft 494 kts 61°
2026-04-21 01:24 36.27529 -86.25595 31329 ft 501 kts 61°
2026-04-21 01:25 36.30089 -86.17615 31342 ft 502 kts 61°
2026-04-21 01:25 36.32657 -86.09575 31333 ft 502 kts 61°
2026-04-21 01:26 36.35219 -86.01535 31319 ft 501 kts 61°
2026-04-21 01:26 36.37775 -85.93498 31315 ft 500 kts 61°
2026-04-21 01:27 36.40304 -85.85524 31311 ft 500 kts 61°
2026-04-21 01:27 36.42842 -85.77495 31342 ft 499 kts 60°
2026-04-21 01:28 36.45374 -85.69469 31314 ft 499 kts 61°
2026-04-21 01:28 36.47894 -85.61453 31315 ft 498 kts 61°
2026-04-21 01:29 36.50409 -85.53432 31307 ft 498 kts 61°
2026-04-21 01:29 36.52898 -85.45470 31317 ft 497 kts 61°
2026-04-21 01:30 36.55398 -85.37450 31337 ft 497 kts 61°
2026-04-21 01:30 36.57893 -85.29427 31328 ft 497 kts 61°
2026-04-21 01:31 36.60385 -85.21399 31325 ft 497 kts 61°
2026-04-21 01:31 36.62848 -85.13423 31331 ft 497 kts 61°
2026-04-21 01:32 36.65323 -85.05399 31361 ft 497 kts 61°
2026-04-21 01:32 36.67799 -84.97344 31341 ft 498 kts 61°
2026-04-21 01:33 36.70265 -84.89292 31341 ft 497 kts 61°
2026-04-21 01:33 36.72731 -84.81240 31332 ft 497 kts 61°
2026-04-21 01:34 36.75162 -84.73251 31330 ft 497 kts 61°
2026-04-21 01:34 36.77610 -84.65201 31354 ft 496 kts 61°
2026-04-21 01:35 36.80049 -84.57136 31344 ft 497 kts 61°
2026-04-21 01:35 36.82491 -84.49086 31331 ft 497 kts 61°
2026-04-21 01:36 36.84915 -84.41012 31323 ft 496 kts 61°
2026-04-21 01:36 36.87326 -84.32995 31338 ft 497 kts 61°
2026-04-21 01:37 36.89745 -84.24913 31348 ft 497 kts 61°
2026-04-21 01:37 36.92160 -84.16824 31334 ft 497 kts 61°
2026-04-21 01:38 36.94557 -84.08775 31332 ft 497 kts 61°
2026-04-21 01:38 36.96961 -84.00672 31322 ft 497 kts 62°
2026-04-21 01:39 36.99361 -83.92564 31321 ft 497 kts 62°
2026-04-21 01:39 37.01757 -83.84453 31334 ft 497 kts 62°
2026-04-21 01:40 37.04147 -83.76332 31324 ft 497 kts 62°
2026-04-21 01:40 37.06514 -83.68255 31326 ft 497 kts 62°
2026-04-21 01:41 37.08899 -83.60122 31335 ft 498 kts 62°
2026-04-21 01:41 37.11271 -83.51969 31336 ft 498 kts 62°
2026-04-21 01:42 37.13640 -83.43823 31312 ft 498 kts 62°
2026-04-21 01:42 37.16002 -83.35670 31336 ft 498 kts 62°
2026-04-21 01:43 37.18346 -83.27567 31322 ft 498 kts 62°
2026-04-21 01:43 37.20696 -83.19404 31315 ft 497 kts 62°
2026-04-21 01:44 37.23046 -83.11241 31322 ft 498 kts 62°
2026-04-21 01:44 37.25382 -83.03069 31314 ft 497 kts 62°
2026-04-21 01:45 37.27699 -82.94962 31335 ft 497 kts 62°
2026-04-21 01:45 37.30028 -82.86789 31326 ft 497 kts 62°
2026-04-21 01:46 37.32352 -82.78607 31326 ft 497 kts 62°
2026-04-21 01:46 37.34671 -82.70418 31338 ft 498 kts 62°
2026-04-21 01:47 37.36968 -82.62264 31335 ft 498 kts 62°
2026-04-21 01:47 37.39279 -82.54069 31325 ft 497 kts 62°
2026-04-21 01:48 37.41574 -82.45865 31321 ft 497 kts 62°
2026-04-21 01:48 37.43869 -82.37654 31315 ft 497 kts 62°
2026-04-21 01:49 37.46156 -82.29456 31291 ft 496 kts 62°
2026-04-21 01:49 37.48417 -82.21307 31308 ft 496 kts 62°
2026-04-21 01:50 37.50688 -82.13098 31321 ft 496 kts 62°
2026-04-21 01:50 37.52958 -82.04889 31312 ft 496 kts 62°
2026-04-21 01:51 37.55223 -81.96677 31315 ft 496 kts 63°
2026-04-21 01:51 37.57473 -81.88448 31332 ft 497 kts 63°
2026-04-21 01:52 37.60839 -81.76139 31341 ft 498 kts 63°
2026-04-21 01:53 37.63087 -81.67889 31326 ft 498 kts 63°
2026-04-21 01:53 37.65325 -81.59623 31354 ft 498 kts 63°
2026-04-21 01:54 37.67556 -81.51383 31345 ft 500 kts 63°
2026-04-21 01:54 37.69796 -81.43080 31342 ft 500 kts 63°
2026-04-21 01:55 37.72033 -81.34757 31338 ft 500 kts 63°
2026-04-21 01:55 37.74260 -81.26429 31358 ft 501 kts 63°
2026-04-21 01:56 37.76487 -81.18089 31341 ft 501 kts 63°
2026-04-21 01:56 37.78792 -81.09866 31337 ft 496 kts 59°
2026-04-21 01:57 37.81706 -81.02017 31350 ft 492 kts 56°
2026-04-21 01:57 37.84572 -80.94100 31392 ft 497 kts 57°
2026-04-21 01:58 37.87399 -80.86104 31376 ft 498 kts 57°
2026-04-21 01:58 37.90210 -80.78137 31375 ft 499 kts 58°
2026-04-21 01:59 37.93063 -80.70121 31390 ft 500 kts 58°
2026-04-21 01:59 37.95922 -80.62088 31346 ft 500 kts 58°
2026-04-21 02:00 37.98764 -80.54051 31376 ft 499 kts 58°
2026-04-21 02:00 38.01576 -80.46092 31385 ft 497 kts 58°
2026-04-21 02:01 38.04390 -80.38102 31379 ft 496 kts 58°
2026-04-21 02:01 38.07190 -80.30119 31390 ft 495 kts 58°
2026-04-21 02:02 38.09989 -80.22142 31381 ft 494 kts 58°
2026-04-21 02:02 38.12810 -80.14206 31404 ft 493 kts 57°
2026-04-21 02:03 38.15622 -80.06313 31381 ft 493 kts 58°
2026-04-21 02:03 38.18437 -79.98360 31385 ft 495 kts 58°
2026-04-21 02:04 38.21257 -79.90361 31389 ft 497 kts 58°
2026-04-21 02:04 38.24082 -79.82315 31389 ft 499 kts 58°
2026-04-21 02:05 38.26911 -79.74249 31384 ft 500 kts 58°
2026-04-21 02:05 38.29687 -79.66193 31382 ft 501 kts 58°
2026-04-21 02:05 38.31051 -79.62210 31370 ft 477 kts 58°
2026-04-21 02:06 38.32342 -79.58380 31362 ft 469 kts 58°
2026-04-21 02:06 38.34947 -79.50739 31361 ft 471 kts 57°
2026-04-21 02:07 38.37601 -79.43037 30908 ft 484 kts 58°
2026-04-21 02:07 38.38920 -79.39174 30256 ft 475 kts 58°
2026-04-21 02:07 38.40195 -79.35376 29486 ft 458 kts 58°
2026-04-21 02:07 38.41422 -79.31695 28814 ft 446 kts 58°
2026-04-21 02:08 38.42550 -79.28008 28165 ft 449 kts 63°
2026-04-21 02:08 38.43400 -79.24165 27521 ft 453 kts 68°
2026-04-21 02:08 38.44049 -79.20230 26891 ft 453 kts 71°
2026-04-21 02:08 38.44652 -79.16298 26293 ft 451 kts 71°
2026-04-21 02:09 38.45270 -79.12392 25693 ft 448 kts 70°
2026-04-21 02:09 38.45936 -79.08520 25084 ft 445 kts 69°
2026-04-21 02:09 38.46609 -79.04687 24704 ft 440 kts 70°
2026-04-21 02:09 38.47260 -79.00945 24712 ft 426 kts 69°
2026-04-21 02:10 38.47884 -78.97363 24627 ft 413 kts 69°
2026-04-21 02:10 38.48520 -78.93763 23977 ft 419 kts 69°
2026-04-21 02:10 38.49156 -78.90128 23235 ft 420 kts 70°
2026-04-21 02:10 38.49777 -78.86496 22713 ft 415 kts 70°
2026-04-21 02:11 38.50379 -78.82954 22620 ft 399 kts 70°
2026-04-21 02:11 38.50946 -78.79517 22314 ft 397 kts 70°
2026-04-21 02:11 38.51522 -78.76029 22008 ft 405 kts 71°
2026-04-21 02:11 38.52087 -78.72492 21703 ft 406 kts 71°
2026-04-21 02:12 38.52462 -78.70157 21566 ft 405 kts 71°
2026-04-21 02:12 38.53186 -78.65530 21446 ft 398 kts 71°
2026-04-21 02:12 38.53704 -78.62092 21385 ft 391 kts 71°
2026-04-21 02:12 38.54220 -78.58678 21109 ft 394 kts 71°
2026-04-21 02:13 38.54751 -78.55229 20794 ft 397 kts 71°
2026-04-21 02:13 38.55294 -78.51764 20406 ft 400 kts 71°
2026-04-21 02:13 38.55848 -78.48279 19562 ft 398 kts 71°
2026-04-21 02:13 38.56392 -78.44834 18727 ft 393 kts 71°
2026-04-21 02:14 38.56747 -78.42574 18163 ft 390 kts 71°
2026-04-21 02:14 38.57271 -78.39248 17772 ft 373 kts 70°
2026-04-21 02:14 38.57825 -78.36053 17454 ft 368 kts 69°
2026-04-21 02:14 38.58559 -78.31889 16991 ft 359 kts 70°
2026-04-21 02:15 38.59106 -78.28747 16654 ft 368 kts 70°
2026-04-21 02:15 38.59488 -78.26601 16361 ft 379 kts 70°
2026-04-21 02:15 38.60159 -78.23326 16030 ft 377 kts 64°
2026-04-21 02:15 38.61073 -78.20298 15575 ft 357 kts 59°
2026-04-21 02:16 38.62078 -78.17417 15138 ft 354 kts 58°
2026-04-21 02:16 38.63089 -78.14555 14721 ft 353 kts 58°
2026-04-21 02:16 38.64381 -78.10746 14211 ft 351 kts 59°
2026-04-21 02:16 38.65018 -78.08816 14074 ft 346 kts 60°
2026-04-21 02:17 38.65927 -78.05967 13980 ft 349 kts 60°
2026-04-21 02:17 38.66852 -78.03076 13869 ft 352 kts 60°
2026-04-21 02:17 38.67769 -78.00196 13747 ft 349 kts 60°
2026-04-21 02:17 38.68683 -77.97359 13617 ft 349 kts 60°
2026-04-21 02:18 38.69603 -77.94475 13525 ft 350 kts 60°
2026-04-21 02:18 38.70516 -77.91585 13393 ft 350 kts 60°
2026-04-21 02:18 38.71425 -77.88694 13265 ft 350 kts 60°
2026-04-21 02:18 38.72340 -77.85807 13140 ft 350 kts 60°
2026-04-21 02:19 38.73316 -77.82977 13023 ft 342 kts 52°
2026-04-21 02:19 38.74657 -77.80580 13003 ft 316 kts 43°
2026-04-21 02:19 38.76049 -77.78538 12731 ft 298 kts 39°
2026-04-21 02:19 38.77439 -77.76624 12290 ft 289 kts 39°
2026-04-21 02:20 38.78792 -77.74764 11849 ft 282 kts 39°
2026-04-21 02:20 38.80123 -77.72951 11453 ft 285 kts 40°
2026-04-21 02:20 38.81446 -77.71067 11190 ft 283 kts 45°
2026-04-21 02:20 38.82512 -77.68995 11256 ft 275 kts 52°
2026-04-21 02:21 38.83450 -77.66745 10958 ft 295 kts 57°
2026-04-21 02:21 38.84323 -77.64349 10651 ft 298 kts 59°
2026-04-21 02:21 38.85173 -77.61917 10346 ft 298 kts 60°
2026-04-21 02:21 38.86025 -77.59496 9991 ft 298 kts 60°
2026-04-21 02:22 38.86887 -77.57082 9659 ft 297 kts 60°
2026-04-21 02:22 38.87745 -77.54712 9308 ft 296 kts 59°
2026-04-21 02:22 38.88615 -77.52339 8961 ft 292 kts 59°
2026-04-21 02:22 38.89471 -77.49985 8612 ft 289 kts 59°
2026-04-21 02:23 38.90314 -77.47662 8281 ft 285 kts 60°
2026-04-21 02:23 38.90873 -77.45260 8142 ft 282 kts 83°
2026-04-21 02:23 38.90454 -77.42793 7817 ft 292 kts 115°
2026-04-21 02:23 38.89455 -77.40469 7537 ft 301 kts 120°
2026-04-21 02:24 38.88361 -77.38179 7236 ft 302 kts 121°
2026-04-21 02:24 38.87253 -77.35880 6875 ft 304 kts 122°
2026-04-21 02:24 38.86155 -77.33553 6495 ft 303 kts 120°
2026-04-21 02:24 38.85127 -77.31291 6207 ft 293 kts 119°
2026-04-21 02:25 38.84133 -77.29061 6061 ft 284 kts 118°
2026-04-21 02:25 38.83165 -77.26886 6003 ft 278 kts 119°
2026-04-21 02:25 38.82197 -77.24721 5987 ft 282 kts 119°
2026-04-21 02:25 38.81210 -77.22534 5990 ft 286 kts 119°
2026-04-21 02:26 38.80212 -77.20314 5993 ft 289 kts 118°
2026-04-21 02:26 38.79200 -77.18072 5991 ft 292 kts 119°
2026-04-21 02:26 38.78180 -77.15812 5992 ft 294 kts 119°
2026-04-21 02:26 38.77155 -77.13541 5872 ft 297 kts 119°
2026-04-21 02:27 38.75858 -77.11586 5320 ft 291 kts 146°
2026-04-21 02:27 38.74013 -77.10732 4784 ft 279 kts 178°
2026-04-21 02:27 38.72108 -77.10721 4272 ft 271 kts 184°
2026-04-21 02:27 38.70244 -77.10801 3750 ft 266 kts 184°
2026-04-21 02:28 38.68410 -77.10904 3223 ft 262 kts 184°
2026-04-21 02:28 38.66606 -77.11034 2811 ft 255 kts 184°
2026-04-21 02:28 38.64896 -77.11171 2634 ft 236 kts 185°
2026-04-21 02:28 38.63286 -77.11307 2569 ft 230 kts 185°
2026-04-21 02:29 38.61690 -77.11318 2513 ft 231 kts 166°
2026-04-21 02:29 38.60193 -77.10634 2517 ft 228 kts 159°
2026-04-21 02:29 38.58844 -77.09678 2360 ft 229 kts 131°
2026-04-21 02:29 38.58193 -77.07905 2101 ft 213 kts 86°
2026-04-21 02:30 38.58583 -77.06264 2046 ft 183 kts 43°
2026-04-21 02:30 38.59591 -77.05335 2041 ft 179 kts 28°
2026-04-21 02:30 38.60676 -77.04509 2115 ft 183 kts 27°
2026-04-21 02:30 38.61795 -77.03707 2076 ft 183 kts 25°
2026-04-21 02:31 38.62906 -77.02938 2052 ft 181 kts 25°
2026-04-21 02:31 38.64020 -77.02216 2017 ft 178 kts 19°
2026-04-21 02:31 38.65249 -77.02061 1999 ft 182 kts 359°
2026-04-21 02:31 38.66489 -77.02049 2002 ft 180 kts 359°
2026-04-21 02:32 38.67731 -77.02069 1986 ft 178 kts 357°
2026-04-21 02:32 38.68957 -77.02165 1987 ft 171 kts 355°
2026-04-21 02:32 38.70049 -77.02321 1938 ft 145 kts 352°
2026-04-21 02:32 38.70979 -77.02536 1887 ft 130 kts 348°
2026-04-21 02:33 38.71858 -77.02801 1913 ft 134 kts 352°
2026-04-21 02:33 38.72813 -77.02780 1942 ft 142 kts
2026-04-21 02:33 38.73782 -77.02726 1984 ft 133 kts
2026-04-21 02:33 38.74674 -77.02737 2014 ft 122 kts 358°
2026-04-21 02:34 38.75542 -77.02787 1850 ft 130 kts 356°
2026-04-21 02:34 38.76427 -77.02869 1598 ft 125 kts 355°
2026-04-21 02:34 38.77309 -77.02966 1441 ft 128 kts 355°
2026-04-21 02:34 38.78215 -77.03063 1255 ft 133 kts 356°
2026-04-21 02:35 38.79146 -77.03161 1060 ft 136 kts 355°
2026-04-21 02:35 38.80096 -77.03255 875 ft 137 kts 355°
2026-04-21 02:35 38.81025 -77.03355 685 ft 135 kts 355°
2026-04-21 02:35 38.81978 -77.03455 501 ft 139 kts 355°
2026-04-21 02:36 38.82917 -77.03539 306 ft 129 kts 356°
2026-04-21 02:36 38.83754 -77.03624 133 ft 118 kts 354°
2026-04-21 02:36 38.84547 -77.03712 26 ft 107 kts 355°
2026-04-21 02:36 38.85123 -77.03773 22 ft 49 kts 355°
2026-04-21 02:37 38.85257 -77.03843 21 ft 15 kts 280°
2026-04-21 02:37 38.85311 -77.03933 23 ft 13 kts 346°
2026-04-21 02:37 38.85328 -77.03944 22 ft 1 kts 320°
2026-04-21 02:37 38.85334 -77.03953 22 ft 1 kts 302°
2026-04-21 02:38 38.85340 -77.03987 22 ft 8 kts 269°
2026-04-21 02:38 38.85328 -77.04062 22 ft 9 kts 254°
2026-04-21 02:38 38.85318 -77.04128 22 ft 2 kts 295°
2026-04-21 02:38 38.85332 -77.04141 25 ft 4 kts 338°
2026-04-21 02:39 38.85354 -77.04150 22 ft 0 kts 346°
2026-04-21 02:39 38.85362 -77.04152 24 ft 0 kts 347°